FW5754 Weather Reports


Display with metric or nautical units.
time (UTC)temp
F
wind
direction
speed
MPH
gust
MPH
rain 1hr
in
rain 24hr
in
rain mn
in
humidity
%
barometer
mb
20260507060529 53 228 4.0 6.0 0.00 0.06 0.01 89 1007.1
20260507060049 -63 228 3.0 5.0 0.00 0.06 0.01 89 1007.0
20260507055530 53 0 0.0 0.0 0.00 0.06 0.01 89 1007.1
20260507055032 53 0 0.0 0.0 0.00 0.06 0.01 1007.2
20260507054543 53 0 0.0 0.0 0.00 0.06 0.01 89 1007.3
20260507054029 53 0 0.0 2.0 0.00 0.06 0.01 89 1007.3
20260507053534 53 0 0.0 2.0 0.01 0.06 0.01 89 1007.4
20260507053044 53 228 0.0 3.0 0.01 0.06 0.01 100 1007.4
20260507052534 53 0 0.0 8.0 0.01 0.06 0.01 89 1007.3
20260507052031 53 228 2.0 8.0 0.01 0.06 0.01 88 1007.4
20260507051559 -63 228 6.0 8.0 0.01 0.06 0.01 1007.3
20260507051031 55 201 3.0 6.0 0.01 0.06 0.01 1007.6
20260507050534 55 201 1.0 4.0 0.01 0.06 0.01 89 1007.6
20260507050048 54 0 0.0 4.0 0.01 0.06 0.01 89 1007.7
20260507045531 54 200 0.0 4.0 0.01 0.06 0.01 89 1007.9
20260507045034 54 0 0.0 0.0 0.01 0.06 0.01 89 1008.0
20260507044556 53 0 0.0 3.0 0.01 0.06 0.01 1008.0
20260507044038 53 0 0.0 4.0 0.02 0.06 0.01 88 1007.9
20260507043534 53 0 0.0 4.0 0.02 0.05 0.00 88 1008.0
20260507043047 -63 201 1.0 3.0 0.03 0.05 0.00 100 1008.1
20260507042534 53 201 2.0 7.0 0.03 0.05 0.00 87 1008.1
20260507042034 53 201 2.0 7.0 0.03 0.05 0.00 87 1008.1
20260507041543 54 200 5.0 7.0 0.03 0.05 0.00 87 1008.2
20260507041032 55 0 0.0 4.0 0.03 0.05 0.00 87 1007.7
20260507040535 55 192 1.0 4.0 0.03 0.05 0.00 88 1007.8
20260507040047 55 192 1.0 5.0 0.03 0.05 0.00 87 1007.9
20260507035531 55 0 0.0 5.0 0.03 0.05 0.05 86 1007.7
20260507035031 56 192 1.0 5.0 0.03 0.05 0.05 87 1007.9
20260507034547 57 192 1.0 6.0 0.03 0.05 0.05 87 1008.0
20260507034033 57 192 2.0 6.0 0.02 0.04 0.04 87 1007.9
20260507033535 57 192 1.0 12.0 0.01 0.03 0.03 1008.0
20260507033040 -54 192 4.0 12.0 0.00 0.02 0.02 1007.9
20260507032534 57 186 3.0 12.0 0.00 0.02 0.02 87 1007.9
20260507032035 57 190 4.0 9.0 0.00 0.02 0.02 87 1007.9
20260507031535 57 194 3.0 7.0 0.00 0.02 0.02 87 1007.7
20260507031034 57 191 3.0 8.0 0.00 0.02 0.02 87 1007.6
20260507030535 57 193 3.0 11.0 0.00 0.02 0.02 87 1007.7
20260507030048 57 192 4.0 11.0 0.00 0.02 0.02 87 1007.7
20260507025536 57 202 5.0 9.0 0.00 0.02 0.02 88 1007.8
20260507025039 57 202 4.0 12.0 0.00 0.02 0.02 88 1007.6
20260507024543 57 199 5.0 12.0 0.00 0.02 0.02 87 1007.8
20260507024034 57 190 4.0 11.0 0.00 0.02 0.02 87 1007.9
20260507023532 57 195 5.0 11.0 0.00 0.02 0.02 87 1007.9
20260507023043 57 182 4.0 11.0 0.00 0.02 0.02 87 1007.8
20260507022535 57 188 4.0 12.0 0.00 0.02 0.02 87 1007.9
20260507022031 57 185 5.0 12.0 0.00 0.02 0.02 87 1007.8
20260507021549 57 138 4.0 10.0 0.00 0.02 0.02 87 1007.8
20260507021035 57 196 4.0 9.0 0.00 0.02 0.02 87 1007.9
20260507020535 57 203 4.0 11.0 0.00 0.02 0.02 87 1007.9
20260507020100 57 197 4.0 11.0 0.00 0.02 0.02 87 1008.0
20260507015537 57 196 2.0 10.0 0.00 0.02 0.02 87 1007.9
20260507015034 57 209 3.0 10.0 0.00 0.02 0.02 87 1007.8
20260507014548 57 198 3.0 10.0 0.00 0.02 0.02 87 1008.0
20260507014035 57 207 1.0 11.0 0.00 0.02 0.02 87 1007.9
20260507013535 57 207 5.0 16.0 0.00 0.02 0.02 87 1007.8
20260507013044 57 213 4.0 16.0 0.00 0.02 0.02 87 1007.9
20260507012537 57 210 4.0 9.0 0.00 0.02 0.02 87 1008.1
20260507012034 57 207 4.0 12.0 0.00 0.02 0.02 87 1007.9
20260507011544 57 205 4.0 12.0 0.00 0.02 0.02 87 1007.9
20260507011034 57 192 5.0 14.0 0.00 0.02 0.02 87 1008.0
20260507010535 57 192 5.0 14.0 0.00 0.02 0.02 87 1007.9
20260507010057 57 180 4.0 11.0 0.00 0.02 0.02 87 1007.9
20260507005534 57 176 5.0 13.0 0.00 0.02 0.02 87 1007.9
20260507005034 57 205 6.0 13.0 0.00 0.02 0.02 87 1008.0
20260507004549 57 202 5.0 13.0 0.00 0.02 0.02 87 1008.2
20260507004031 57 223 4.0 13.0 0.00 0.02 0.02 87 1008.4
20260507003532 57 186 6.0 15.0 0.00 0.02 0.02 87 1008.2
20260507003044 57 190 4.0 15.0 0.00 0.02 0.02 87 1008.2
20260507002530 57 194 6.0 18.0 0.00 0.02 0.02 87 1008.3
20260507002033 57 210 5.0 18.0 0.00 0.02 0.02 87 1008.2
20260507001551 57 178 6.0 17.0 0.00 0.02 0.02 87 1008.2
20260507001034 57 175 6.0 14.0 0.00 0.02 0.02 87 1008.3
20260507000534 57 187 4.0 12.0 0.00 0.02 0.02 87 1008.1
20260507000044 57 178 5.0 16.0 0.00 0.02 0.02 88 1008.1
20260506235534 57 182 7.0 16.0 0.00 0.02 0.02 88 1008.0
20260506235034 57 198 5.0 14.0 0.00 0.02 0.02 88 1007.9
20260506234550 57 221 5.0 14.0 0.00 0.02 0.02 88 1007.9
20260506234036 57 188 5.0 14.0 0.00 0.02 0.02 88 1007.9
20260506233534 57 194 4.0 14.0 0.00 0.02 0.02 88 1007.9
20260506233049 57 206 6.0 14.0 0.00 0.02 0.02 88 1007.8
20260506232533 57 187 5.0 15.0 0.00 0.02 0.02 88 1007.8
20260506232033 57 206 5.0 17.0 0.00 0.02 0.02 88 1007.9
20260506231603 57 167 5.0 17.0 0.00 0.02 0.02 88 1007.9
20260506231035 57 207 6.0 16.0 0.00 0.02 0.02 100 1008.0
20260506230531 57 203 6.0 16.0 0.00 0.02 0.02 88 1008.0
20260506230055 57 197 7.0 19.0 0.00 0.02 0.02 88 1008.0
20260506225534 57 200 7.0 19.0 0.00 0.02 0.02 88 1008.0
20260506225030 56 186 7.0 16.0 0.00 0.02 0.02 88 1007.9
20260506224544 56 169 6.0 21.0 0.00 0.02 0.02 88 1007.8
20260506224033 57 182 5.0 21.0 0.00 0.02 0.02 88 1007.8
20260506223536 57 221 6.0 23.0 0.00 0.02 0.02 88 1007.8
20260506223040 57 186 5.0 23.0 0.00 0.02 0.02 88 1007.7
20260506222534 57 186 6.0 19.0 0.00 0.02 0.02 88 1007.7
20260506222036 57 187 8.0 19.0 0.00 0.02 0.02 88 1007.8
20260506221546 57 175 7.0 16.0 0.01 0.02 0.02 88 1007.9
20260506221033 57 200 7.0 15.0 0.01 0.02 0.02 88 1007.8
20260506220534 57 203 6.0 17.0 0.01 0.02 0.02 88 1007.8
20260506220048 57 185 4.0 21.0 0.01 0.02 0.02 88 1007.7
20260506215533 57 168 8.0 21.0 0.01 0.02 0.02 88 1007.7
20260506215030 57 161 8.0 15.0 0.01 0.02 0.02 88 1007.7
20260506214549 -56 184 5.0 15.0 0.01 0.02 0.02 1007.8
20260506214031 -56 180 5.0 18.0 0.01 0.02 0.02 1007.7
20260506213530 -56 170 6.0 18.0 0.01 0.02 0.02 1007.7
20260506213041 -56 182 6.0 19.0 0.01 0.02 0.02 1007.8
20260506212530 -56 216 5.0 19.0 0.01 0.02 0.02 1007.7
20260506212030 -56 202 6.0 16.0 0.00 0.01 0.01 100 1007.8
20260506211544 158 158 5.0 16.0 0.00 0.01 0.01 100 1007.8
20260506211034 -56 185 4.0 13.0 0.00 0.01 0.01 1007.9
20260506210534 -54 158 5.0 17.0 0.00 0.01 0.01 1007.9
20260506210053 -54 206 6.0 20.0 0.00 0.01 0.01 100 1008.0
20260506205534 -54 190 7.0 20.0 0.00 0.01 0.01 1008.1
20260506205034 -54 203 6.0 17.0 0.00 0.01 0.01 100 1008.3
20260506204540 58 198 4.0 17.0 0.00 0.01 0.01 85 1008.3
20260506204033 58 198 7.0 17.0 0.00 0.01 0.01 84 1008.4
20260506203535 58 191 7.0 17.0 0.00 0.01 0.01 84 1008.1
20260506203046 58 202 6.0 25.0 0.00 0.01 0.01 84 1008.2
20260506202533 58 196 7.0 25.0 0.00 0.01 0.01 84 1008.2
20260506202033 58 210 10.0 22.0 0.00 0.01 0.01 84 1008.2
20260506201539 58 192 7.0 25.0 0.00 0.01 0.01 84 1008.1
20260506201031 58 186 9.0 25.0 0.00 0.01 0.01 84 1008.2
20260506200534 59 217 6.0 24.0 0.00 0.01 0.01 84 1008.2
20260506200044 -52 190 6.0 19.0 0.00 0.01 0.01 1008.2
20260506195530 -52 166 6.0 21.0 0.00 0.01 0.01 1008.3
20260506195034 -52 163 10.0 21.0 0.00 0.01 0.01 1008.4
20260506194540 -52 205 6.0 18.0 0.00 0.01 0.01 1008.5
20260506194033 -54 184 6.0 25.0 0.00 0.01 0.01 1008.4
20260506193533 -54 179 8.0 25.0 0.00 0.01 0.01 1008.5
20260506193041 -54 191 6.0 19.0 0.00 0.01 0.01 1008.7
20260506192533 -52 187 7.0 20.0 0.00 0.01 0.01 1008.8
20260506192035 -54 209 9.0 20.0 0.01 0.01 0.01 1008.9
20260506191538 -54 190 7.0 19.0 0.01 0.01 0.01 100 1008.9
20260506191034 -54 190 6.0 20.0 0.01 0.01 0.01 1009.0
20260506190535 -54 147 7.0 22.0 0.01 0.01 0.01 1009.0
20260506190044 -54 234 6.0 22.0 0.01 0.01 0.01 1009.1
20260506185533 -54 186 7.0 18.0 0.01 0.01 0.01 1009.0
20260506185032 -54 186 6.0 18.0 0.01 0.01 0.01 1009.2
20260506184547 -54 200 8.0 18.0 0.01 0.01 0.01 1009.1
20260506184034 -54 178 7.0 17.0 0.01 0.01 0.01 1009.2
20260506183534 -54 160 7.0 17.0 0.01 0.01 0.01 1009.2
20260506183041 58 194 5.0 17.0 0.01 0.01 0.01 84 1009.4
20260506182533 58 188 6.0 15.0 0.01 0.01 0.01 84 1009.3
20260506182034 59 189 7.0 16.0 0.00 0.00 0.00 1009.3
20260506181539 59 180 8.0 16.0 0.00 0.00 0.00 83 1009.5
20260506181032 59 212 5.0 27.0 0.00 0.00 0.00 82 1009.5
20260506180534 60 204 8.0 27.0 0.00 0.00 0.00 82 1009.6
20260506180040 60 183 6.0 18.0 0.00 0.00 0.00 81 1009.9
20260506175533 60 144 7.0 18.0 0.00 0.00 0.00 100 1009.9
20260506175038 60 172 6.0 22.0 0.00 0.00 0.00 80 1010.0
20260506174545 -50 185 8.0 22.0 0.00 0.00 0.00 1010.1
20260506174034 61 207 6.0 27.0 0.00 0.00 0.00 100 1010.1
20260506173534 61 221 7.0 27.0 0.00 0.00 0.00 78 1010.2
20260506173047 60 173 8.0 24.0 0.00 0.00 0.00 78 1010.2
20260506172533 -50 165 6.0 23.0 0.00 0.00 0.00 78 1010.2
20260506172038 60 190 9.0 22.0 0.00 0.00 0.00 78 1010.2
20260506171554 61 194 7.0 19.0 0.00 0.00 0.00 78 1010.3
20260506171034 60 191 9.0 28.0 0.00 0.00 0.00 78 1010.4
20260506170534 60 186 9.0 28.0 0.00 0.00 0.00 78 1010.4
20260506170053 60 146 7.0 24.0 0.00 0.00 0.00 78 1010.4
20260506165535 -50 180 10.0 26.0 0.00 0.00 0.00 1010.5
20260506165036 -50 183 9.0 26.0 0.00 0.00 0.00 1010.4
20260506164537 -50 200 8.0 21.0 0.00 0.00 0.00 1010.7
20260506164033 -50 179 9.0 24.0 0.00 0.00 0.00 100 1010.7
20260506163533 -50 186 9.0 24.0 0.00 0.00 0.00 1010.6
20260506163045 -50 188 9.0 24.0 0.00 0.00 0.00 1010.6
20260506162533 158 165 9.0 18.0 0.00 0.00 0.00 1010.5
20260506162033 62 225 9.0 20.0 0.00 0.00 0.00 76 1010.6
20260506161543 62 146 8.0 24.0 0.00 0.00 0.00 76 1010.6
20260506161034 62 184 10.0 24.0 0.00 0.00 0.00 76 1010.8
20260506160534 62 160 9.0 24.0 0.00 0.00 0.00 76 1011.0
20260506160052 62 154 8.0 23.0 0.00 0.00 0.00 77 1011.1
20260506155534 62 190 7.0 23.0 0.00 0.00 0.00 77 1011.1
20260506155033 61 171 9.0 22.0 0.00 0.00 0.00 76 1011.3
20260506154541 62 182 9.0 22.0 0.00 0.00 0.00 76 1011.1
20260506154036 62 197 7.0 22.0 0.00 0.00 0.00 76 1011.2
20260506153533 -49 182 8.0 22.0 0.00 0.00 0.00 1011.3
20260506153037 -49 198 9.0 23.0 0.00 0.00 0.00 1011.2
20260506152531 -49 149 8.0 24.0 0.00 0.00 0.00 1011.2
20260506152033 -49 140 8.0 24.0 0.00 0.00 0.00 1011.0
20260506151544 -49 224 8.0 20.0 0.00 0.00 0.00 1011.1
20260506151034 -49 208 9.0 25.0 0.00 0.00 0.00 1011.3
20260506150530 -49 180 8.0 25.0 0.00 0.00 0.00 1011.3
20260506150042 64 192 7.0 24.0 0.00 0.00 0.00 74 1011.3
20260506145531 64 190 9.0 24.0 0.00 0.00 0.00 1011.3
20260506145033 64 224 10.0 28.0 0.00 0.00 0.00 74 1011.3
20260506144559 63 201 8.0 28.0 0.00 0.00 0.00 75 1011.3
20260506144035 63 163 11.0 26.0 0.00 0.00 0.00 75 1011.3
20260506143534 63 190 10.0 26.0 0.00 0.00 0.00 75 1011.3
20260506143038 63 202 11.0 24.0 0.00 0.00 0.00 75 1011.3
20260506142534 63 184 8.0 26.0 0.00 0.00 0.00 1011.6
20260506142033 62 169 10.0 26.0 0.00 0.00 0.00 76 1011.6
20260506141537 62 201 7.0 24.0 0.00 0.00 0.00 76 1011.7
20260506141030 62 150 10.0 24.0 0.00 0.00 0.00 76 1011.6
20260506140534 62 180 7.0 23.0 0.00 0.00 0.00 76 1011.5
20260506140037 62 182 7.0 21.0 0.00 0.00 0.00 75 1011.6
20260506135533 62 204 8.0 21.0 0.00 0.00 0.00 1011.5
20260506135034 62 174 7.0 23.0 0.00 0.00 0.00 76 1011.4
20260506134539 63 200 9.0 23.0 0.00 0.00 0.00 75 1011.4
20260506134032 63 185 9.0 28.0 0.00 0.00 0.00 74 1011.1
20260506133529 63 137 7.0 28.0 0.00 0.00 0.00 75 1011.3
20260506133040 63 180 7.0 26.0 0.00 0.00 0.00 75 1011.4
20260506132539 63 204 8.0 26.0 0.00 0.00 0.00 75 1011.5
20260506132033 63 201 7.0 24.0 0.00 0.00 0.00 75 1011.2
20260506131546 -49 225 11.0 27.0 0.00 0.00 0.00 1011.2
20260506131033 -49 205 10.0 28.0 0.00 0.00 0.00 1011.4
20260506130534 63 201 11.0 29.0 0.00 0.00 0.00 1011.4
20260506130049 -49 148 11.0 29.0 0.00 0.00 0.00 1011.6
20260506125533 63 184 10.0 19.0 0.00 0.00 0.00 75 1011.6
20260506125033 63 186 6.0 19.0 0.00 0.00 0.00 76 1011.8
20260506124543 62 217 8.0 18.0 0.00 0.00 0.00 76 1011.7
20260506124033 -49 192 7.0 19.0 0.00 0.00 0.00 77 1011.7
20260506123533 62 146 9.0 23.0 0.00 0.00 0.00 77 1011.7
20260506123050 62 226 9.0 26.0 0.00 0.00 0.00 78 1011.7
20260506122530 61 202 9.0 27.0 0.00 0.00 0.00 78 1011.7
20260506122033 61 215 7.0 27.0 0.00 0.00 0.00 79 1011.6
20260506121541 61 192 8.0 19.0 0.00 0.00 0.00 79 1011.6
20260506121036 61 206 6.0 19.0 0.00 0.00 0.00 80 1011.5
20260506120535 60 184 8.0 21.0 0.00 0.00 0.00 80 1011.5
20260506120053 60 148 8.0 23.0 0.00 0.00 0.00 100 1011.5
20260506115535 -50 165 9.0 23.0 0.00 0.00 0.00 1011.5
20260506115033 -50 209 9.0 24.0 0.00 0.00 0.00 1011.5
20260506114552 -50 190 8.0 26.0 0.00 0.00 0.00 1011.5
20260506114033 -52 178 7.0 30.0 0.00 0.00 0.00 1011.5
20260506113533 -52 181 8.0 30.0 0.00 0.00 0.00 1011.5
20260506113044 -52 179 7.0 23.0 0.00 0.00 0.00 1011.6
20260506112534 -52 184 6.0 23.0 0.00 0.00 0.00 1011.5
20260506112033 59 217 8.0 26.0 0.00 0.00 0.00 100 1011.5
20260506111548 59 190 10.0 26.0 0.00 0.00 0.00 82 1011.6
20260506111033 59 209 6.0 29.0 0.00 0.00 0.00 83 1011.4
20260506110533 -52 221 9.0 29.0 0.00 0.00 0.00 1011.5
20260506110048 -54 173 8.0 21.0 0.00 0.00 0.00 1011.4
20260506105531 -54 194 8.0 18.0 0.00 0.00 0.00 1011.5
20260506105030 58 194 7.0 19.0 0.00 0.00 0.00 100 1011.5
20260506104548 -54 178 8.0 19.0 0.00 0.00 0.00 100 1011.6
20260506104033 57 194 6.0 21.0 0.00 0.00 0.00 84 1011.4
20260506103533 57 186 8.0 21.0 0.00 0.00 0.00 84 1011.4
20260506103053 -56 201 8.0 20.0 0.00 0.00 0.00 84 1011.5
20260506102536 57 198 7.0 17.0 0.00 0.00 0.00 84 1011.3
20260506102034 57 217 7.0 17.0 0.00 0.00 0.00 1011.3
20260506101538 57 204 6.0 23.0 0.00 0.00 0.00 84 1011.4
20260506101034 57 190 8.0 24.0 0.00 0.00 0.00 84 1011.3
20260506100533 57 192 8.0 24.0 0.00 0.00 0.00 84 1011.4
20260506095533 57 189 7.0 20.0 0.00 0.00 0.00 84 1011.3
20260506095033 57 152 8.0 20.0 0.00 0.00 0.00 84 1011.1
20260506094539 58 190 7.0 22.0 0.00 0.00 0.00 83 1011.2
20260506094032 58 134 8.0 26.0 0.00 0.00 0.00 83 1011.3
20260506093530 58 178 8.0 26.0 0.00 0.00 0.00 83 1011.3
20260506093040 58 193 10.0 22.0 0.00 0.00 0.00 83 1011.4
20260506092533 58 178 8.0 18.0 0.00 0.00 0.00 100 1011.4
20260506092030 58 178 7.0 23.0 0.00 0.00 0.00 83 1011.3
20260506091538 58 180 7.0 23.0 0.00 0.00 0.00 83 1011.4
20260506091033 58 142 10.0 27.0 0.00 0.00 0.00 83 1011.3
20260506090532 58 198 9.0 29.0 0.00 0.00 0.00 1011.3
20260506090037 58 184 11.0 29.0 0.00 0.00 0.00 83 1011.5
20260506085533 58 213 10.0 23.0 0.00 0.00 0.00 83 1011.5
20260506085033 58 185 9.0 26.0 0.00 0.00 0.00 83 1011.5
20260506084541 58 177 8.0 26.0 0.00 0.00 0.00 83 1011.5
20260506084033 58 188 7.0 21.0 0.00 0.00 0.00 83 1011.6
20260506083533 58 227 8.0 24.0 0.00 0.00 0.00 1011.7
20260506083045 -54 159 7.0 24.0 0.00 0.00 0.00 1011.6
20260506082533 -54 190 8.0 22.0 0.00 0.00 0.00 1011.6
20260506082033 -54 148 7.0 22.0 0.00 0.00 0.00 1011.7
20260506081543 -54 195 9.0 21.0 0.00 0.00 0.00 1011.7
20260506081030 -54 172 8.0 22.0 0.00 0.00 0.00 1011.7
20260506080530 -54 188 10.0 22.0 0.00 0.00 0.00 1011.7
20260506073038 -52 191 8.0 27.0 0.00 0.00 0.00 1011.9
20260506072533 59 186 11.0 26.0 0.00 0.00 0.00 80 1011.8
20260506072033 59 168 9.0 22.0 0.00 0.00 0.00 80 1011.8
20260506071549 59 188 8.0 30.0 0.00 0.00 0.00 80 1012.0
20260506071033 59 198 7.0 30.0 0.00 0.00 0.00 80 1011.9
20260506070534 59 190 12.0 28.0 0.00 0.00 0.00 80 1011.8
20260506062035 59 202 9.0 22.0 0.00 0.00 0.00 80 1012.0
20260506061537 59 189 9.0 24.0 0.00 0.00 0.00 80 1011.9
20260506061031 59 195 9.0 24.0 0.00 0.00 0.00 80 1011.9